STARLINK-32311, 62114

Orbit data source: Space-Track

STARLINK-32311, 62114 is a payload satellite owned by SpaceX/Seattle (US) in LEO that was launched on Wed, 27 Nov 2024 UTC via an FALCON 9 launch vehicle from the Air Force Eastern Test Range (AFETR). Payload-class satellites include a variety of spacecraft equipped with specific instruments for various scientific and technological missions. These include communications satellites like Starlink; space stations such as the ISS; scientific satellites like the Hubble; Earth observation satellites from companies like Planet Labs, Umbra, and HawkEye 360; GPS; miniature CubeSats for education and research; and military/defense satellites.

Loading next visibility...
Identifier
62114, 2024-222A
Orbit
LEO
Country
Flag of USUS
Related business
Manufacturer
SpaceX/Seattle
Mission
Operational Commercial Communications
Bus & Motor
STARLINK V2M, Unknown motor
Mass
730 kg wet, ~700 kg dry
Launch date (UTC)
2024-11-27 (2 years ago)
Launch vehicle
FALCON 9
Launch site
Air Force Eastern Test Range (AFETR)
Object type
Payload
Rocket body
Debris
Shape & HBR
Box + 2 Pan, 17.7 m
Radar Cross Section
33.884 m², Large (>1 m²)

Expand to show TLE details & history
Last TLE update: 1 day ago

TLE from 1 day ago
0 STARLINK-32311
1 62114U 24222A   26170.57156470  .00011798  00000-0  43744-3 0  9998
2 62114  42.9988 265.8300 0001018 269.8581  90.2154 15.27588998 88660
Epoch: 2026-06-19T13:43Z
TLE epoch observation values (Epoch: 2026-06-19T13:43:03.190Z)
Latitude
Longitude
152.26808°
Altitude
482.8 km
Speed
7.626 km/s
True Right ascension
17h 43m 19s
True Declination
0° 00' 00"
Sunlit
Object was in full shadow at epoch
Visualization orbit readout
Latitude
Unknown
Longitude
Unknown
Altitude
Unknown
Speed
Unknown
Apparent Right ascension
Unknown
Apparent Declination
Unknown
Sunlit
N/A
Visualization observer readout
Local Sidereal Time
07:17:51
Azimuth
Unknown
Elevation
Unknown
Doppler factor
Unknown
Orbital elements
Apogee altitude
485.666 km
Perigee altitude
484.269 km
Semi-major axis
6,863.105 km
Eccentricity
0.0001
Inclination
42.9988°
RAAN
265.83°
Arg. of periapsis
269.8581°
True anomaly
90.22707°
Mean anomaly
90.2154°
Eccentric anomaly
90.22123°
Mean motion
3.81735 °/min
Orbital period
94.31 mins
BSTAR
0.00043744
Loading maneuver chart data...
Computing Atmospheric mass density...
Loading historical data...
Loading historical data...
Loading historical data...
Loading historical data...
Loading historical data...
Loading historical data...
Loading historical data...

Documentation

Showing up to 5 results
|